Time,TemperatureF,DewpointF,PressureIn,WindDirection,WindDirectionDegrees,WindSpeedMPH,WindSpeedGustMPH,Humidity,HourlyPrecipIn,Conditions,Clouds,dailyrainin,SoftwareType,DateUTC
2013-03-04 00:04:00,32.4,25.0,29.67,ENE,68,4.7,11.2,74,0.00,,,0.00,WUHU216HW,2013-03-04 06:04:00,
2013-03-04 00:09:00,32.2,25.2,29.67,ESE,113,4.0,7.2,75,0.00,,,0.00,WUHU216HW,2013-03-04 06:09:00,
2013-03-04 00:14:00,32.0,25.0,29.67,SE,135,5.8,5.8,75,0.00,,,0.00,WUHU216HW,2013-03-04 06:14:00,
2013-03-04 00:20:00,32.0,25.0,29.67,ESE,113,6.9,6.9,75,0.00,,,0.00,WUHU216HW,2013-03-04 06:20:00,
2013-03-04 00:25:00,32.0,25.0,29.67,East,90,8.9,8.9,75,0.00,,,0.00,WUHU216HW,2013-03-04 06:25:00,
2013-03-04 00:30:00,32.0,25.0,29.66,SE,135,4.5,8.9,75,0.00,,,0.00,WUHU216HW,2013-03-04 06:30:00,
2013-03-04 00:35:00,32.0,25.0,29.65,SE,135,5.1,7.6,75,0.00,,,0.00,WUHU216HW,2013-03-04 06:35:00,
2013-03-04 00:40:00,31.9,24.8,29.65,ESE,113,6.7,6.9,75,0.00,,,0.00,WUHU216HW,2013-03-04 06:40:00,
2013-03-04 00:45:00,31.7,24.7,29.65,South,180,4.0,6.7,75,0.00,,,0.00,WUHU216HW,2013-03-04 06:45:00,
2013-03-04 00:50:00,31.7,24.7,29.65,ESE,113,4.9,6.7,75,0.00,,,0.00,WUHU216HW,2013-03-04 06:50:00,
2013-03-04 00:55:00,31.9,24.8,29.65,SE,135,5.6,5.6,75,0.00,,,0.00,WUHU216HW,2013-03-04 06:55:00,
2013-03-04 01:00:00,31.9,24.8,29.65,ESE,113,5.1,5.6,75,0.00,,,0.00,WUHU216HW,2013-03-04 07:00:00,
2013-03-04 01:05:00,31.7,24.7,29.66,ESE,113,4.3,5.6,75,0.00,,,0.00,WUHU216HW,2013-03-04 07:05:00,
2013-03-04 01:10:00,31.7,24.7,29.66,ESE,113,1.1,5.1,75,0.00,,,0.00,WUHU216HW,2013-03-04 07:10:00,
2013-03-04 01:15:00,31.5,24.5,29.65,SSE,158,3.6,5.6,75,0.00,,,0.00,WUHU216HW,2013-03-04 07:15:00,
2013-03-04 01:20:00,31.3,24.3,29.65,ESE,113,4.0,6.3,75,0.00,,,0.00,WUHU216HW,2013-03-04 07:20:00,
2013-03-04 01:26:00,31.3,24.3,29.65,SE,135,4.7,6.9,75,0.00,,,0.00,WUHU216HW,2013-03-04 07:26:00,
2013-03-04 01:31:00,31.3,24.7,29.65,ESE,113,3.4,6.9,76,0.00,,,0.00,WUHU216HW,2013-03-04 07:31:00,
2013-03-04 01:36:00,31.3,24.3,29.65,SE,135,3.4,4.9,75,0.00,,,0.00,WUHU216HW,2013-03-04 07:36:00,
2013-03-04 01:41:00,31.1,24.5,29.66,SSE,158,0.4,4.7,76,0.00,,,0.00,WUHU216HW,2013-03-04 07:41:00,
2013-03-04 01:46:00,31.1,24.1,29.66,ENE,68,3.4,3.4,75,0.00,,,0.00,WUHU216HW,2013-03-04 07:46:00,
2013-03-04 01:51:00,31.0,24.3,29.66,East,90,1.8,3.4,76,0.00,,,0.00,WUHU216HW,2013-03-04 07:51:00,
2013-03-04 01:56:00,30.8,24.1,29.65,ESE,113,2.7,3.4,76,0.00,,,0.00,WUHU216HW,2013-03-04 07:56:00,
2013-03-04 02:01:00,30.4,23.8,29.64,SE,135,1.1,2.9,76,0.00,,,0.00,WUHU216HW,2013-03-04 08:01:00,
2013-03-04 02:06:00,30.2,23.6,29.64,ESE,113,1.6,2.7,76,0.00,,,0.00,WUHU216HW,2013-03-04 08:06:00,
2013-03-04 02:11:00,30.4,23.8,29.65,ESE,113,2.7,5.4,76,0.00,,,0.00,WUHU216HW,2013-03-04 08:11:00,
2013-03-04 02:16:00,30.4,23.8,29.65,East,90,3.8,5.4,76,0.00,,,0.00,WUHU216HW,2013-03-04 08:16:00,
2013-03-04 02:21:00,30.4,23.8,29.65,ESE,113,1.1,4.0,76,0.00,,,0.00,WUHU216HW,2013-03-04 08:21:00,
2013-03-04 02:26:00,30.2,23.6,29.65,ESE,113,2.5,4.3,76,0.00,,,0.00,WUHU216HW,2013-03-04 08:26:00,
2013-03-04 02:31:00,30.4,23.8,29.65,East,90,4.3,4.3,76,0.00,,,0.00,WUHU216HW,2013-03-04 08:31:00,
2013-03-04 02:36:00,30.2,23.6,29.64,ESE,113,4.7,4.7,76,0.00,,,0.00,WUHU216HW,2013-03-04 08:36:00,
2013-03-04 02:41:00,30.1,23.4,29.63,ESE,113,4.7,4.7,76,0.00,,,0.00,WUHU216HW,2013-03-04 08:41:00,
2013-03-04 02:46:00,30.2,23.6,29.63,ESE,113,4.7,4.7,76,0.00,,,0.00,WUHU216HW,2013-03-04 08:46:00,
2013-03-04 02:52:00,30.1,23.4,29.63,SE,135,2.5,4.7,76,0.00,,,0.00,WUHU216HW,2013-03-04 08:52:00,
2013-03-04 02:57:00,30.1,23.4,29.62,SE,135,5.4,6.3,76,0.00,,,0.00,WUHU216HW,2013-03-04 08:57:00,
2013-03-04 03:02:00,30.2,23.6,29.62,ESE,113,3.4,6.9,76,0.00,,,0.00,WUHU216HW,2013-03-04 09:02:00,
2013-03-04 03:07:00,30.6,24.0,29.62,ESE,113,4.0,6.9,76,0.00,,,0.00,WUHU216HW,2013-03-04 09:07:00,
2013-03-04 03:12:00,30.6,24.0,29.62,ESE,113,6.3,6.7,76,0.00,,,0.00,WUHU216HW,2013-03-04 09:12:00,
2013-03-04 03:17:00,30.6,24.0,29.62,SE,135,2.5,6.3,76,0.00,,,0.00,WUHU216HW,2013-03-04 09:17:00,
2013-03-04 03:22:00,30.6,24.0,29.61,ESE,113,2.7,3.4,76,0.00,,,0.00,WUHU216HW,2013-03-04 09:22:00,
2013-03-04 03:27:00,30.4,23.8,29.61,ESE,113,5.4,5.4,76,0.00,,,0.00,WUHU216HW,2013-03-04 09:27:00,
2013-03-04 03:32:00,30.4,23.8,29.61,NNE,23,5.8,5.8,76,0.00,,,0.00,WUHU216HW,2013-03-04 09:32:00,
2013-03-04 03:37:00,30.6,24.0,29.61,East,90,1.8,5.8,76,0.00,,,0.00,WUHU216HW,2013-03-04 09:37:00,
2013-03-04 03:42:00,30.4,23.8,29.61,ESE,113,0.4,3.4,76,0.00,,,0.00,WUHU216HW,2013-03-04 09:42:00,
2013-03-04 03:47:00,30.4,23.8,29.62,East,90,1.1,3.8,76,0.00,,,0.00,WUHU216HW,2013-03-04 09:47:00,
2013-03-04 03:53:00,30.4,23.8,29.62,East,90,0.9,3.8,76,0.00,,,0.00,WUHU216HW,2013-03-04 09:53:00,
2013-03-04 03:58:00,30.4,23.8,29.62,East,90,2.0,2.7,76,0.00,,,0.00,WUHU216HW,2013-03-04 09:58:00,
2013-03-04 04:03:00,30.1,23.4,29.62,NE,45,1.1,2.7,76,0.00,,,0.00,WUHU216HW,2013-03-04 10:03:00,
2013-03-04 04:08:00,29.9,23.2,29.63,NE,45,1.6,2.5,76,0.00,,,0.00,WUHU216HW,2013-03-04 10:08:00,
2013-03-04 04:13:00,29.7,22.7,29.63,East,90,1.1,1.8,75,0.00,,,0.00,WUHU216HW,2013-03-04 10:13:00,
2013-03-04 04:18:00,29.7,22.7,29.64,NNE,23,2.0,2.0,75,0.00,,,0.00,WUHU216HW,2013-03-04 10:18:00,
2013-03-04 04:23:00,29.7,22.7,29.64,NNE,23,2.0,2.0,75,0.00,,,0.00,WUHU216HW,2013-03-04 10:23:00,
2013-03-04 04:45:00,28.6,22.0,29.63,NE,45,0.4,0.4,76,0.00,,,0.00,WUHU216HW,2013-03-04 10:45:00,
2013-03-04 04:50:00,28.4,21.8,29.63,NE,45,1.3,2.2,76,0.00,,,0.00,WUHU216HW,2013-03-04 10:50:00,
2013-03-04 04:55:00,28.4,21.8,29.63,NE,45,0.7,2.5,76,0.00,,,0.00,WUHU216HW,2013-03-04 10:55:00,
2013-03-04 05:00:00,28.3,21.6,29.63,East,90,0.9,2.5,76,0.00,,,0.00,WUHU216HW,2013-03-04 11:00:00,
2013-03-04 05:05:00,28.4,21.8,29.63,ENE,68,1.8,2.0,76,0.00,,,0.00,WUHU216HW,2013-03-04 11:05:00,
2013-03-04 05:10:00,28.4,21.8,29.64,North,0,1.1,2.5,76,0.00,,,0.00,WUHU216HW,2013-03-04 11:10:00,
2013-03-04 05:15:00,28.4,21.8,29.65,NNE,23,0.2,2.5,76,0.00,,,0.00,WUHU216HW,2013-03-04 11:15:00,
2013-03-04 05:20:00,28.1,21.4,29.65,North,0,0.2,0.9,76,0.00,,,0.00,WUHU216HW,2013-03-04 11:20:00,
2013-03-04 05:25:00,27.7,21.4,29.64,North,0,0.7,0.9,77,0.00,,,0.00,WUHU216HW,2013-03-04 11:25:00,
2013-03-04 05:30:00,27.5,21.3,29.64,NNE,23,1.6,1.8,77,0.00,,,0.00,WUHU216HW,2013-03-04 11:30:00,
2013-03-04 05:35:00,27.4,21.1,29.64,ENE,68,1.3,1.8,77,0.00,,,0.00,WUHU216HW,2013-03-04 11:35:00,
2013-03-04 05:40:00,27.5,21.3,29.64,NNE,23,2.0,2.5,77,0.00,,,0.00,WUHU216HW,2013-03-04 11:40:00,
2013-03-04 05:46:00,27.5,21.3,29.65,NNE,23,0.2,2.5,77,0.00,,,0.00,WUHU216HW,2013-03-04 11:46:00,
2013-03-04 05:51:00,27.4,21.1,29.65,NNE,23,1.1,1.1,77,0.00,,,0.00,WUHU216HW,2013-03-04 11:51:00,
2013-03-04 05:56:00,27.2,20.9,29.64,NE,45,0.9,3.1,77,0.00,,,0.00,WUHU216HW,2013-03-04 11:56:00,
2013-03-04 06:01:00,27.2,20.9,29.64,NE,45,2.9,3.1,77,0.00,,,0.00,WUHU216HW,2013-03-04 12:01:00,
2013-03-04 06:06:00,27.2,20.9,29.64,NNE,23,1.1,2.9,77,0.00,,,0.00,WUHU216HW,2013-03-04 12:06:00,
2013-03-04 06:11:00,27.0,20.7,29.64,NE,45,2.9,3.4,77,0.00,,,0.00,WUHU216HW,2013-03-04 12:11:00,
2013-03-04 06:16:00,27.0,20.7,29.65,NNE,23,1.8,3.4,77,0.00,,,0.00,WUHU216HW,2013-03-04 12:16:00,
2013-03-04 06:21:00,27.0,20.7,29.65,NNE,23,1.3,2.5,77,0.00,,,0.00,WUHU216HW,2013-03-04 12:21:00,
2013-03-04 06:26:00,27.0,20.7,29.65,NNE,23,1.1,1.3,77,0.00,,,0.00,WUHU216HW,2013-03-04 12:26:00,
2013-03-04 06:31:00,27.0,20.7,29.65,North,0,0.2,1.3,77,0.00,,,0.00,WUHU216HW,2013-03-04 12:31:00,
2013-03-04 06:36:00,27.0,20.7,29.65,NNE,23,1.8,1.8,77,0.00,,,0.00,WUHU216HW,2013-03-04 12:36:00,
2013-03-04 06:41:00,26.8,20.5,29.65,NNE,23,2.5,3.4,77,0.00,,,0.00,WUHU216HW,2013-03-04 12:41:00,
2013-03-04 06:46:00,27.0,20.7,29.65,NNE,23,1.1,3.4,77,0.00,,,0.00,WUHU216HW,2013-03-04 12:46:00,
2013-03-04 06:51:00,27.0,20.7,29.65,ENE,68,0.2,3.4,77,0.00,,,0.00,WUHU216HW,2013-03-04 12:51:00,
2013-03-04 06:56:00,27.0,20.7,29.66,ENE,68,0.4,1.1,77,0.00,,,0.00,WUHU216HW,2013-03-04 12:56:00,
2013-03-04 07:01:00,26.8,20.5,29.65,NNE,23,0.4,0.7,77,0.00,,,0.00,WUHU216HW,2013-03-04 13:01:00,
2013-03-04 07:07:00,26.8,20.5,29.65,NE,45,0.2,0.7,77,0.00,,,0.00,WUHU216HW,2013-03-04 13:07:00,
2013-03-04 07:12:00,27.0,20.7,29.65,NE,45,0.0,1.6,77,0.00,,,0.00,WUHU216HW,2013-03-04 13:12:00,
2013-03-04 07:17:00,27.4,21.1,29.65,NE,45,1.8,1.8,77,0.00,,,0.00,WUHU216HW,2013-03-04 13:17:00,
2013-03-04 07:22:00,27.7,21.4,29.65,NE,45,1.1,2.0,77,0.00,,,0.00,WUHU216HW,2013-03-04 13:22:00,
2013-03-04 07:27:00,27.7,21.4,29.66,NE,45,0.4,2.0,77,0.00,,,0.00,WUHU216HW,2013-03-04 13:27:00,
2013-03-04 07:32:00,27.9,21.6,29.65,North,0,0.0,1.1,77,0.00,,,0.00,WUHU216HW,2013-03-04 13:32:00,
2013-03-04 07:37:00,28.1,21.8,29.66,North,0,0.0,1.1,77,0.00,,,0.00,WUHU216HW,2013-03-04 13:37:00,
2013-03-04 07:42:00,28.1,21.8,29.66,North,0,0.0,0.2,77,0.00,,,0.00,WUHU216HW,2013-03-04 13:42:00,
2013-03-04 07:47:00,28.4,22.2,29.66,North,0,0.0,0.2,77,0.00,,,0.00,WUHU216HW,2013-03-04 13:47:00,
2013-03-04 07:53:00,28.4,22.2,29.67,North,0,0.0,0.0,77,0.00,,,0.00,WUHU216HW,2013-03-04 13:53:00,
2013-03-04 07:58:00,28.3,22.0,29.67,North,0,0.0,0.0,77,0.00,,,0.00,WUHU216HW,2013-03-04 13:58:00,
2013-03-04 08:03:00,28.4,22.2,29.67,North,0,0.0,0.2,77,0.00,,,0.00,WUHU216HW,2013-03-04 14:03:00,
2013-03-04 08:08:00,29.2,22.5,29.67,North,0,0.0,0.2,76,0.00,,,0.00,WUHU216HW,2013-03-04 14:08:00,
2013-03-04 08:13:00,30.2,23.9,29.68,North,0,1.1,1.1,77,0.00,,,0.00,WUHU216HW,2013-03-04 14:13:00,
2013-03-04 08:18:00,32.0,25.4,29.68,North,0,0.2,1.1,76,0.00,,,0.00,WUHU216HW,2013-03-04 14:18:00,
2013-03-04 08:23:00,34.2,27.4,29.68,NNE,23,0.4,1.1,76,0.00,,,0.00,WUHU216HW,2013-03-04 14:23:00,
2013-03-04 08:28:00,35.6,28.4,29.69,North,0,0.2,0.9,75,0.00,,,0.00,WUHU216HW,2013-03-04 14:28:00,
2013-03-04 08:33:00,36.2,28.6,29.68,NNE,23,0.9,0.9,74,0.00,,,0.00,WUHU216HW,2013-03-04 14:33:00,
2013-03-04 08:38:00,37.6,30.1,29.69,North,0,1.1,1.3,74,0.00,,,0.00,WUHU216HW,2013-03-04 14:38:00,
2013-03-04 08:43:00,38.3,30.8,29.69,North,0,1.8,1.8,74,0.00,,,0.00,WUHU216HW,2013-03-04 14:43:00,
2013-03-04 08:48:00,38.5,30.2,29.69,North,0,0.7,1.8,72,0.00,,,0.00,WUHU216HW,2013-03-04 14:48:00,
2013-03-04 08:53:00,38.0,29.8,29.69,North,0,2.2,2.2,72,0.00,,,0.00,WUHU216HW,2013-03-04 14:53:00,
2013-03-04 08:58:00,37.8,29.6,29.69,North,0,0.4,2.2,72,0.00,,,0.00,WUHU216HW,2013-03-04 14:58:00,
2013-03-04 09:04:00,38.5,30.2,29.69,North,0,0.4,1.8,72,0.00,,,0.00,WUHU216HW,2013-03-04 15:04:00,
2013-03-04 09:09:00,40.0,31.6,29.69,NNE,23,0.9,1.1,72,0.00,,,0.00,WUHU216HW,2013-03-04 15:09:00,
2013-03-04 09:14:00,40.7,31.7,29.70,North,0,0.0,0.9,70,0.00,,,0.00,WUHU216HW,2013-03-04 15:14:00,
2013-03-04 09:19:00,41.6,32.6,29.69,North,0,0.4,0.9,70,0.00,,,0.00,WUHU216HW,2013-03-04 15:19:00,
2013-03-04 09:24:00,43.0,33.2,29.69,North,0,1.1,2.5,68,0.00,,,0.00,WUHU216HW,2013-03-04 15:24:00,
2013-03-04 09:29:00,43.2,33.0,29.69,North,0,0.2,2.5,67,0.00,,,0.00,WUHU216HW,2013-03-04 15:29:00,
2013-03-04 09:34:00,44.3,34.0,29.70,NNE,23,1.1,2.2,67,0.00,,,0.00,WUHU216HW,2013-03-04 15:34:00,
2013-03-04 09:39:00,45.5,34.8,29.70,NNE,23,1.1,1.8,66,0.00,,,0.00,WUHU216HW,2013-03-04 15:39:00,
2013-03-04 09:44:00,45.9,34.0,29.70,ENE,68,0.9,1.8,63,0.00,,,0.00,WUHU216HW,2013-03-04 15:44:00,
2013-03-04 09:49:00,46.1,33.8,29.70,ENE,68,0.9,2.0,62,0.00,,,0.00,WUHU216HW,2013-03-04 15:49:00,
2013-03-04 09:54:00,46.3,33.9,29.70,ENE,68,0.2,2.0,62,0.00,,,0.00,WUHU216HW,2013-03-04 15:54:00,
2013-03-04 09:59:00,45.9,34.0,29.70,NE,45,1.8,1.8,63,0.00,,,0.00,WUHU216HW,2013-03-04 15:59:00,
2013-03-04 10:04:00,47.0,34.7,29.69,ESE,113,0.7,1.8,62,0.00,,,0.00,WUHU216HW,2013-03-04 16:04:00,
2013-03-04 10:09:00,46.3,32.7,29.70,ESE,113,0.0,1.8,59,0.00,,,0.00,WUHU216HW,2013-03-04 16:09:00,
2013-03-04 10:15:00,45.5,32.5,29.70,WNW,293,0.4,0.7,60,0.00,,,0.00,WUHU216HW,2013-03-04 16:15:00,
2013-03-04 10:20:00,45.9,33.6,29.71,NNE,23,0.7,0.7,62,0.00,,,0.00,WUHU216HW,2013-03-04 16:20:00,
2013-03-04 10:25:00,46.3,33.1,29.71,NNE,23,1.1,1.1,60,0.00,,,0.00,WUHU216HW,2013-03-04 16:25:00,
2013-03-04 10:30:00,45.9,32.9,29.71,WSW,248,0.4,1.1,60,0.00,,,0.00,WUHU216HW,2013-03-04 16:30:00,
2013-03-04 10:35:00,45.0,32.8,29.71,West,270,1.1,1.1,62,0.00,,,0.00,WUHU216HW,2013-03-04 16:35:00,
2013-03-04 10:40:00,44.1,32.3,29.71,NNW,338,0.4,1.1,63,0.00,,,0.00,WUHU216HW,2013-03-04 16:40:00,
2013-03-04 10:45:00,43.4,32.0,29.72,WNW,293,0.2,2.5,64,0.00,,,0.00,WUHU216HW,2013-03-04 16:45:00,
2013-03-04 10:50:00,42.7,32.5,29.72,WNW,293,1.8,2.5,67,0.00,,,0.00,WUHU216HW,2013-03-04 16:50:00,
2013-03-04 10:55:00,41.6,31.4,29.72,WNW,293,1.8,1.8,67,0.00,,,0.00,WUHU216HW,2013-03-04 16:55:00,
2013-03-04 11:00:00,40.7,31.3,29.73,WNW,293,1.8,1.8,69,0.00,,,0.00,WUHU216HW,2013-03-04 17:00:00,
2013-03-04 11:05:00,39.2,30.6,29.73,WNW,293,2.0,2.0,71,0.00,,,0.00,WUHU216HW,2013-03-04 17:05:00,
2013-03-04 11:10:00,38.5,30.0,29.73,WNW,293,1.8,2.0,71,0.00,,,0.00,WUHU216HW,2013-03-04 17:10:00,
2013-03-04 11:15:00,38.3,30.1,29.73,NW,315,1.1,1.8,72,0.00,,,0.00,WUHU216HW,2013-03-04 17:15:00,
2013-03-04 11:20:00,37.8,29.3,29.74,WNW,293,2.2,2.2,71,0.00,,,0.00,WUHU216HW,2013-03-04 17:20:00,
2013-03-04 11:25:00,37.6,29.8,29.74,West,270,2.5,2.5,73,0.00,,,0.00,WUHU216HW,2013-03-04 17:25:00,
2013-03-04 11:30:00,37.1,29.3,29.74,WNW,293,1.1,2.5,73,0.00,,,0.00,WUHU216HW,2013-03-04 17:30:00,
2013-03-04 11:35:00,36.9,29.1,29.74,WNW,293,1.8,2.5,73,0.00,,,0.00,WUHU216HW,2013-03-04 17:35:00,
2013-03-04 11:40:00,36.9,29.3,29.74,WNW,293,1.3,1.8,74,0.00,,,0.00,WUHU216HW,2013-03-04 17:40:00,
2013-03-04 11:45:00,37.1,29.3,29.75,WNW,293,1.6,2.5,73,0.00,,,0.00,WUHU216HW,2013-03-04 17:45:00,
2013-03-04 11:50:00,36.9,29.3,29.75,WNW,293,2.7,2.7,74,0.00,,,0.00,WUHU216HW,2013-03-04 17:50:00,
2013-03-04 11:55:00,36.9,29.3,29.75,WNW,293,2.0,2.7,74,0.00,,,0.00,WUHU216HW,2013-03-04 17:55:00,
2013-03-04 12:00:00,36.9,29.3,29.75,NW,315,1.1,2.7,74,0.00,,,0.00,WUHU216HW,2013-03-04 18:00:00,
2013-03-04 12:05:00,37.1,29.5,29.75,WNW,293,3.1,3.1,74,0.00,,,0.00,WUHU216HW,2013-03-04 18:05:00,
2013-03-04 12:10:00,36.7,29.2,29.75,NW,315,2.9,3.1,74,0.00,,,0.00,WUHU216HW,2013-03-04 18:10:00,
2013-03-04 12:16:00,36.5,29.0,29.75,NW,315,2.0,2.9,74,0.00,,,0.00,WUHU216HW,2013-03-04 18:16:00,
2013-03-04 12:21:00,36.7,29.2,29.75,NW,315,2.0,2.9,74,0.00,,,0.00,WUHU216HW,2013-03-04 18:21:00,
2013-03-04 12:26:00,36.7,29.2,29.76,NW,315,1.3,2.0,74,0.00,,,0.00,WUHU216HW,2013-03-04 18:26:00,
2013-03-04 12:29:00,36.7,29.2,29.76,NNW,338,1.8,2.0,74,0.00,,,0.00,WUHU216HW,2013-03-04 18:29:00,
2013-03-04 12:30:00,36.7,29.2,29.76,NNW,338,1.8,2.0,74,0.00,,,0.00,WUHU216HW,2013-03-04 18:30:00,
2013-03-04 12:35:00,36.7,29.2,29.76,NW,315,1.8,2.0,74,0.00,,,0.00,WUHU216HW,2013-03-04 18:35:00,
2013-03-04 12:40:00,36.7,29.2,29.76,NNW,338,2.2,2.2,74,0.00,,,0.00,WUHU216HW,2013-03-04 18:40:00,
2013-03-04 12:45:00,36.7,29.2,29.76,NNW,338,1.1,2.5,74,0.00,,,0.00,WUHU216HW,2013-03-04 18:45:00,
2013-03-04 12:50:00,36.9,29.3,29.76,NW,315,2.7,2.7,74,0.00,,,0.00,WUHU216HW,2013-03-04 18:50:00,
2013-03-04 12:55:00,36.9,29.3,29.76,NW,315,2.0,2.7,74,0.00,,,0.00,WUHU216HW,2013-03-04 18:55:00,
2013-03-04 13:01:00,36.9,29.3,29.75,WNW,293,2.0,2.7,74,0.00,,,0.00,WUHU216HW,2013-03-04 19:01:00,
2013-03-04 13:06:00,37.1,29.5,29.76,SW,225,1.3,3.4,74,0.00,,,0.00,WUHU216HW,2013-03-04 19:06:00,
2013-03-04 13:11:00,37.1,29.5,29.76,NW,315,2.5,3.4,74,0.00,,,0.00,WUHU216HW,2013-03-04 19:11:00,
2013-03-04 13:16:00,36.9,29.3,29.76,WNW,293,0.4,2.5,74,0.00,,,0.00,WUHU216HW,2013-03-04 19:16:00,
2013-03-04 13:21:00,37.1,29.5,29.76,North,0,0.2,2.5,74,0.00,,,0.00,WUHU216HW,2013-03-04 19:21:00,
2013-03-04 13:26:00,37.1,29.5,29.76,North,0,1.1,1.8,74,0.00,,,0.00,WUHU216HW,2013-03-04 19:26:00,
2013-03-04 13:31:00,37.1,29.5,29.76,NNW,338,1.1,1.1,74,0.00,,,0.00,WUHU216HW,2013-03-04 19:31:00,
2013-03-04 13:36:00,37.4,29.9,29.76,North,0,2.0,2.9,74,0.00,,,0.00,WUHU216HW,2013-03-04 19:36:00,
2013-03-04 13:41:00,37.4,29.9,29.76,NNW,338,2.0,3.1,74,0.00,,,0.00,WUHU216HW,2013-03-04 19:41:00,
2013-03-04 13:46:00,37.4,29.9,29.75,NE,45,1.6,3.1,74,0.00,,,0.00,WUHU216HW,2013-03-04 19:46:00,
2013-03-04 13:51:00,37.4,29.9,29.75,NNW,338,2.5,2.7,74,0.00,,,0.00,WUHU216HW,2013-03-04 19:51:00,
2013-03-04 13:56:00,38.0,30.4,29.75,NW,315,2.5,3.8,74,0.00,,,0.00,WUHU216HW,2013-03-04 19:56:00,
2013-03-04 14:01:00,38.0,30.4,29.75,North,0,3.4,3.8,74,0.00,,,0.00,WUHU216HW,2013-03-04 20:01:00,
2013-03-04 14:06:00,37.8,30.2,29.76,NNW,338,3.4,3.4,74,0.00,,,0.00,WUHU216HW,2013-03-04 20:06:00,
2013-03-04 14:12:00,37.4,29.9,29.76,NW,315,2.2,3.4,74,0.00,,,0.00,WUHU216HW,2013-03-04 20:12:00,
2013-03-04 14:17:00,37.4,29.9,29.75,NNW,338,2.0,2.9,74,0.00,,,0.00,WUHU216HW,2013-03-04 20:17:00,
2013-03-04 14:22:00,37.3,29.7,29.75,NW,315,2.5,4.0,74,0.00,,,0.00,WUHU216HW,2013-03-04 20:22:00,
2013-03-04 14:27:00,37.1,29.5,29.75,North,0,5.1,5.1,74,0.00,,,0.00,WUHU216HW,2013-03-04 20:27:00,
2013-03-04 14:32:00,37.3,29.7,29.75,North,0,2.2,5.1,74,0.00,,,0.00,WUHU216HW,2013-03-04 20:32:00,
2013-03-04 14:37:00,37.4,29.9,29.75,North,0,3.4,3.4,74,0.00,,,0.00,WUHU216HW,2013-03-04 20:37:00,
2013-03-04 14:42:00,37.4,29.9,29.76,North,0,3.1,4.3,74,0.00,,,0.00,WUHU216HW,2013-03-04 20:42:00,
2013-03-04 14:47:00,37.3,29.7,29.75,North,0,2.5,4.3,74,0.00,,,0.00,WUHU216HW,2013-03-04 20:47:00,
2013-03-04 14:52:00,37.4,29.9,29.75,NNE,23,3.4,4.0,74,0.00,,,0.00,WUHU216HW,2013-03-04 20:52:00,
2013-03-04 14:57:00,37.6,30.1,29.74,NNE,23,4.7,4.7,74,0.00,,,0.00,WUHU216HW,2013-03-04 20:57:00,
2013-03-04 15:02:00,38.2,30.6,29.74,NNW,338,3.4,4.7,74,0.00,,,0.00,WUHU216HW,2013-03-04 21:02:00,
2013-03-04 15:07:00,38.9,31.2,29.75,North,0,3.1,4.9,74,0.00,,,0.00,WUHU216HW,2013-03-04 21:07:00,
2013-03-04 15:12:00,39.2,31.6,29.75,North,0,1.1,4.9,74,0.00,,,0.00,WUHU216HW,2013-03-04 21:12:00,
2013-03-04 15:17:00,39.2,31.2,29.76,North,0,2.5,4.0,73,0.00,,,0.00,WUHU216HW,2013-03-04 21:17:00,
2013-03-04 15:22:00,39.1,31.2,29.76,North,0,3.4,4.0,73,0.00,,,0.00,WUHU216HW,2013-03-04 21:22:00,
2013-03-04 15:28:00,39.1,31.2,29.76,North,0,4.0,4.0,73,0.00,,,0.00,WUHU216HW,2013-03-04 21:28:00,
2013-03-04 15:33:00,39.1,31.2,29.76,NNE,23,4.9,4.9,73,0.00,,,0.00,WUHU216HW,2013-03-04 21:33:00,
2013-03-04 15:38:00,39.4,31.4,29.77,NW,315,3.1,4.9,73,0.00,,,0.00,WUHU216HW,2013-03-04 21:38:00,
2013-03-04 15:43:00,38.9,31.0,29.77,NNW,338,6.3,6.3,73,0.00,,,0.00,WUHU216HW,2013-03-04 21:43:00,
2013-03-04 15:48:00,38.5,30.6,29.77,NNW,338,4.7,6.3,73,0.00,,,0.00,WUHU216HW,2013-03-04 21:48:00,
2013-03-04 15:53:00,38.2,30.2,29.77,North,0,5.6,6.3,73,0.00,,,0.00,WUHU216HW,2013-03-04 21:53:00,
2013-03-04 15:58:00,38.0,30.4,29.78,North,0,3.4,5.6,74,0.00,,,0.00,WUHU216HW,2013-03-04 21:58:00,
2013-03-04 16:03:00,38.0,30.4,29.78,North,0,2.5,5.6,74,0.00,,,0.00,WUHU216HW,2013-03-04 22:03:00,
2013-03-04 16:08:00,38.2,30.6,29.77,North,0,2.9,2.9,74,0.00,,,0.00,WUHU216HW,2013-03-04 22:08:00,
2013-03-04 16:13:00,38.0,30.4,29.77,North,0,2.9,2.9,74,0.00,,,0.00,WUHU216HW,2013-03-04 22:13:00,
2013-03-04 16:18:00,37.8,30.2,29.78,North,0,3.1,3.4,74,0.00,,,0.00,WUHU216HW,2013-03-04 22:18:00,
2013-03-04 16:23:00,37.8,30.2,29.79,NNW,338,3.4,4.0,74,0.00,,,0.00,WUHU216HW,2013-03-04 22:23:00,
2013-03-04 16:28:00,37.8,30.2,29.80,NNW,338,2.9,4.0,74,0.00,,,0.00,WUHU216HW,2013-03-04 22:28:00,
2013-03-04 16:33:00,37.8,30.2,29.80,North,0,2.7,3.4,74,0.00,,,0.00,WUHU216HW,2013-03-04 22:33:00,
2013-03-04 16:38:00,37.6,30.1,29.80,WNW,293,2.2,2.9,74,0.00,,,0.00,WUHU216HW,2013-03-04 22:38:00,
2013-03-04 16:44:00,37.6,30.1,29.81,North,0,2.7,2.7,74,0.00,,,0.00,WUHU216HW,2013-03-04 22:44:00,
2013-03-04 16:49:00,37.6,30.1,29.81,North,0,1.8,2.7,74,0.00,,,0.00,WUHU216HW,2013-03-04 22:49:00,
2013-03-04 16:54:00,37.4,29.9,29.82,NNW,338,0.4,1.8,74,0.00,,,0.00,WUHU216HW,2013-03-04 22:54:00,
2013-03-04 16:59:00,37.6,30.1,29.83,West,270,1.1,1.8,74,0.00,,,0.00,WUHU216HW,2013-03-04 22:59:00,
2013-03-04 17:04:00,37.4,29.9,29.83,NW,315,1.6,1.6,74,0.00,,,0.00,WUHU216HW,2013-03-04 23:04:00,
2013-03-04 17:09:00,37.4,29.9,29.84,WNW,293,1.8,1.8,74,0.00,,,0.00,WUHU216HW,2013-03-04 23:09:00,
2013-03-04 17:14:00,37.3,29.7,29.85,WNW,293,1.3,2.0,74,0.00,,,0.00,WUHU216HW,2013-03-04 23:14:00,
2013-03-04 17:19:00,37.3,29.7,29.85,WNW,293,0.7,2.0,74,0.00,,,0.00,WUHU216HW,2013-03-04 23:19:00,
2013-03-04 17:24:00,37.3,29.7,29.85,WNW,293,1.1,1.3,74,0.00,,,0.00,WUHU216HW,2013-03-04 23:24:00,
2013-03-04 17:29:00,37.1,29.5,29.86,North,0,0.4,1.3,74,0.00,,,0.00,WUHU216HW,2013-03-04 23:29:00,
2013-03-04 17:34:00,37.1,29.5,29.85,NNW,338,0.4,2.2,74,0.00,,,0.00,WUHU216HW,2013-03-04 23:34:00,
2013-03-04 17:39:00,37.1,29.5,29.86,North,0,2.2,2.2,74,0.00,,,0.00,WUHU216HW,2013-03-04 23:39:00,
2013-03-04 17:44:00,36.9,29.7,29.86,NNW,338,1.1,2.2,75,0.00,,,0.00,WUHU216HW,2013-03-04 23:44:00,
2013-03-04 17:49:00,36.7,29.5,29.87,WNW,293,0.4,1.1,75,0.00,,,0.00,WUHU216HW,2013-03-04 23:49:00,
2013-03-04 17:54:00,36.5,29.3,29.87,North,0,2.0,2.2,75,0.00,,,0.00,WUHU216HW,2013-03-04 23:54:00,
2013-03-04 17:59:00,36.5,29.3,29.88,NNW,338,2.0,2.2,75,0.00,,,0.00,WUHU216HW,2013-03-04 23:59:00,
2013-03-04 18:04:00,36.4,28.8,29.87,North,0,1.6,2.2,74,0.00,,,0.00,WUHU216HW,2013-03-05 00:04:00,
2013-03-04 18:09:00,36.4,28.8,29.88,North,0,0.7,2.2,74,0.00,,,0.00,WUHU216HW,2013-03-05 00:09:00,
2013-03-04 18:14:00,36.2,28.6,29.89,North,0,2.5,2.5,74,0.00,,,0.00,WUHU216HW,2013-03-05 00:14:00,
2013-03-04 18:19:00,36.2,28.6,29.89,NNW,338,0.4,2.5,74,0.00,,,0.00,WUHU216HW,2013-03-05 00:19:00,
2013-03-04 18:24:00,36.0,28.4,29.90,North,0,0.2,2.5,74,0.00,,,0.00,WUHU216HW,2013-03-05 00:24:00,
2013-03-04 18:29:00,36.0,28.4,29.91,West,270,0.4,0.7,74,0.00,,,0.00,WUHU216HW,2013-03-05 00:29:00,
2013-03-04 18:34:00,35.8,28.3,29.91,North,0,0.2,0.4,74,0.00,,,0.00,WUHU216HW,2013-03-05 00:34:00,
2013-03-04 18:40:00,35.6,28.1,29.91,North,0,4.5,4.5,74,0.00,,,0.00,WUHU216HW,2013-03-05 00:40:00,
2013-03-04 18:45:00,35.6,28.1,29.92,North,0,1.8,4.5,74,0.00,,,0.00,WUHU216HW,2013-03-05 00:45:00,
2013-03-04 18:50:00,35.3,27.7,29.93,West,270,0.2,1.8,74,0.00,,,0.00,WUHU216HW,2013-03-05 00:50:00,
2013-03-04 18:55:00,35.3,27.7,29.93,SSW,203,0.2,1.3,74,0.00,,,0.00,WUHU216HW,2013-03-05 00:55:00,
2013-03-04 19:00:00,34.9,27.7,29.94,WNW,293,0.4,0.4,75,0.00,,,0.00,WUHU216HW,2013-03-05 01:00:00,
2013-03-04 19:05:00,34.9,27.7,29.94,North,0,0.4,0.4,75,0.00,,,0.00,WUHU216HW,2013-03-05 01:05:00,
2013-03-04 19:10:00,34.7,27.5,29.94,WNW,293,0.2,0.4,75,0.00,,,0.00,WUHU216HW,2013-03-05 01:10:00,
2013-03-04 19:15:00,34.7,27.5,29.95,WNW,293,0.4,1.8,75,0.00,,,0.00,WUHU216HW,2013-03-05 01:15:00,
2013-03-04 19:20:00,34.7,27.5,29.95,WNW,293,1.1,1.8,75,0.00,,,0.00,WUHU216HW,2013-03-05 01:20:00,
2013-03-04 19:25:00,34.9,27.4,29.95,WNW,293,1.6,1.6,74,0.00,,,0.00,WUHU216HW,2013-03-05 01:25:00,
2013-03-04 19:30:00,34.9,27.4,29.95,WNW,293,1.6,1.6,74,0.00,,,0.00,WUHU216HW,2013-03-05 01:30:00,
2013-03-04 19:35:00,34.6,27.4,29.95,NW,315,0.0,1.6,75,0.00,,,0.00,WUHU216HW,2013-03-05 01:35:00,
2013-03-04 19:40:00,34.2,27.0,29.95,North,0,0.4,1.6,75,0.00,,,0.00,WUHU216HW,2013-03-05 01:40:00,
2013-03-04 19:45:00,33.8,26.6,29.95,North,0,0.4,1.1,75,0.00,,,0.00,WUHU216HW,2013-03-05 01:45:00,
2013-03-04 19:50:00,33.3,26.5,29.95,North,0,0.4,0.4,76,0.00,,,0.00,WUHU216HW,2013-03-05 01:50:00,
2013-03-04 19:55:00,32.9,26.2,29.95,NNW,338,0.4,0.4,76,0.00,,,0.00,WUHU216HW,2013-03-05 01:55:00,
2013-03-04 20:00:00,32.8,26.0,29.95,North,0,0.0,0.4,76,0.00,,,0.00,WUHU216HW,2013-03-05 02:00:00,
2013-03-04 20:06:00,32.8,26.0,29.95,NNE,23,0.4,0.7,76,0.00,,,0.00,WUHU216HW,2013-03-05 02:06:00,
2013-03-04 20:11:00,32.6,25.8,29.94,NNE,23,0.2,1.1,76,0.00,,,0.00,WUHU216HW,2013-03-05 02:11:00,
2013-03-04 20:16:00,32.6,25.8,29.94,North,0,0.2,1.1,76,0.00,,,0.00,WUHU216HW,2013-03-05 02:16:00,
2013-03-04 20:21:00,32.4,25.7,29.95,NNE,23,0.9,1.1,76,0.00,,,0.00,WUHU216HW,2013-03-05 02:21:00,
2013-03-04 20:26:00,32.2,25.5,29.95,North,0,1.1,1.1,76,0.00,,,0.00,WUHU216HW,2013-03-05 02:26:00,
2013-03-04 20:31:00,32.2,25.5,29.96,NNW,338,0.0,1.1,76,0.00,,,0.00,WUHU216HW,2013-03-05 02:31:00,
2013-03-04 20:36:00,32.2,25.5,29.95,North,0,1.1,1.1,76,0.00,,,0.00,WUHU216HW,2013-03-05 02:36:00,
2013-03-04 20:41:00,32.2,25.5,29.96,North,0,1.1,1.1,76,0.00,,,0.00,WUHU216HW,2013-03-05 02:41:00,
2013-03-04 20:46:00,32.2,25.5,29.96,North,0,0.2,1.1,76,0.00,,,0.00,WUHU216HW,2013-03-05 02:46:00,
2013-03-04 20:51:00,32.0,25.7,29.96,North,0,0.0,0.7,77,0.00,,,0.00,WUHU216HW,2013-03-05 02:51:00,
2013-03-04 20:56:00,32.0,25.7,29.96,North,0,0.0,1.3,77,0.00,,,0.00,WUHU216HW,2013-03-05 02:56:00,
2013-03-04 21:01:00,32.0,25.7,29.96,North,0,0.0,1.3,77,0.00,,,0.00,WUHU216HW,2013-03-05 03:01:00,
2013-03-04 21:06:00,32.0,25.7,29.96,North,0,0.2,0.9,77,0.00,,,0.00,WUHU216HW,2013-03-05 03:06:00,
2013-03-04 21:11:00,32.0,25.7,29.96,North,0,0.4,0.7,77,0.00,,,0.00,WUHU216HW,2013-03-05 03:11:00,
2013-03-04 21:16:00,32.0,25.7,29.97,North,0,1.3,1.3,77,0.00,,,0.00,WUHU216HW,2013-03-05 03:16:00,
2013-03-04 21:21:00,31.9,25.5,29.98,North,0,0.0,1.3,77,0.00,,,0.00,WUHU216HW,2013-03-05 03:21:00,
2013-03-04 21:26:00,31.9,25.5,29.98,North,0,0.2,0.4,77,0.00,,,0.00,WUHU216HW,2013-03-05 03:26:00,
2013-03-04 21:32:00,31.9,25.5,29.98,North,0,0.0,0.2,77,0.00,,,0.00,WUHU216HW,2013-03-05 03:32:00,
2013-03-04 21:36:00,31.7,25.3,29.98,North,0,0.0,0.2,77,0.00,,,0.00,WUHU216HW,2013-03-05 03:36:00,
2013-03-04 21:41:00,31.7,25.3,29.98,North,0,0.0,0.2,77,0.00,,,0.00,WUHU216HW,2013-03-05 03:41:00,
2013-03-04 21:47:00,31.7,25.3,29.98,North,0,0.0,0.2,77,0.00,,,0.00,WUHU216HW,2013-03-05 03:47:00,
2013-03-04 21:52:00,31.5,25.1,29.99,North,0,0.0,0.0,77,0.00,,,0.00,WUHU216HW,2013-03-05 03:52:00,
2013-03-04 21:57:00,31.5,25.1,29.99,North,0,0.0,0.0,77,0.00,,,0.00,WUHU216HW,2013-03-05 03:57:00,
2013-03-04 22:02:00,31.7,25.7,29.99,North,0,0.4,0.4,78,0.00,,,0.00,WUHU216HW,2013-03-05 04:02:00,
2013-03-04 22:07:00,31.7,25.7,29.99,North,0,0.0,0.4,78,0.00,,,0.00,WUHU216HW,2013-03-05 04:07:00,
2013-03-04 22:12:00,31.7,25.7,29.99,North,0,0.0,0.4,78,0.00,,,0.00,WUHU216HW,2013-03-05 04:12:00,
2013-03-04 22:17:00,31.7,25.7,30.00,North,0,0.9,0.9,78,0.00,,,0.00,WUHU216HW,2013-03-05 04:17:00,
2013-03-04 22:22:00,31.7,25.7,30.00,North,0,0.7,1.6,78,0.00,,,0.00,WUHU216HW,2013-03-05 04:22:00,
2013-03-04 22:29:00,31.9,25.8,30.01,North,0,2.0,2.2,78,0.00,,,0.00,WUHU216HW,2013-03-05 04:29:00,
2013-03-04 22:34:00,31.9,25.8,30.00,North,0,1.6,2.2,78,0.00,,,0.00,WUHU216HW,2013-03-05 04:34:00,
2013-03-04 22:39:00,32.0,25.7,30.01,North,0,1.1,1.6,77,0.00,,,0.00,WUHU216HW,2013-03-05 04:39:00,
2013-03-04 22:44:00,32.0,25.7,30.01,North,0,0.9,1.6,77,0.00,,,0.00,WUHU216HW,2013-03-05 04:44:00,
2013-03-04 22:49:00,32.0,25.7,30.02,North,0,0.9,1.3,77,0.00,,,0.00,WUHU216HW,2013-03-05 04:49:00,
2013-03-04 22:54:00,32.0,25.7,30.02,North,0,1.8,1.8,77,0.00,,,0.00,WUHU216HW,2013-03-05 04:54:00,
2013-03-04 22:59:00,32.2,25.5,30.02,North,0,1.1,1.8,76,0.00,,,0.00,WUHU216HW,2013-03-05 04:59:00,
2013-03-04 23:00:00,32.2,25.5,30.02,North,0,1.6,1.8,76,0.00,,,0.00,WUHU216HW,2013-03-05 05:00:00,
2013-03-04 23:01:00,32.2,25.5,30.02,North,0,0.9,1.8,76,0.00,,,0.00,WUHU216HW,2013-03-05 05:01:00,
2013-03-04 23:06:00,32.2,25.5,30.01,North,0,1.1,1.6,76,0.00,,,0.00,WUHU216HW,2013-03-05 05:06:00,
2013-03-04 23:11:00,32.2,24.8,30.02,North,0,1.8,1.8,74,0.00,,,0.00,WUHU216HW,2013-03-05 05:11:00,
2013-03-04 23:17:00,32.2,24.6,30.02,North,0,1.8,1.8,73,0.00,,,0.00,WUHU216HW,2013-03-05 05:17:00,
2013-03-04 23:22:00,32.4,24.0,30.02,North,0,2.9,2.9,71,0.00,,,0.00,WUHU216HW,2013-03-05 05:22:00,
2013-03-04 23:27:00,32.4,22.3,30.02,North,0,3.6,4.3,66,0.00,,,0.00,WUHU216HW,2013-03-05 05:27:00,
2013-03-04 23:32:00,32.0,21.2,30.02,North,0,2.7,4.3,64,0.00,,,0.00,WUHU216HW,2013-03-05 05:32:00,
2013-03-04 23:37:00,31.7,20.2,30.02,North,0,4.0,4.3,62,0.00,,,0.00,WUHU216HW,2013-03-05 05:37:00,
2013-03-04 23:42:00,31.5,20.3,30.02,North,0,4.0,4.3,63,0.00,,,0.00,WUHU216HW,2013-03-05 05:42:00,
2013-03-04 23:47:00,31.3,21.2,30.02,North,0,1.6,4.0,66,0.00,,,0.00,WUHU216HW,2013-03-05 05:47:00,
2013-03-04 23:52:00,31.1,21.1,30.01,North,0,3.4,4.3,66,0.00,,,0.00,WUHU216HW,2013-03-05 05:52:00,
2013-03-04 23:57:00,30.8,21.1,30.02,North,0,1.8,4.3,67,0.00,,,0.00,WUHU216HW,2013-03-05 05:57:00,